Time,TemperatureF,DewpointF,PressureIn,WindDirection,WindDirectionDegrees,WindSpeedMPH,WindSpeedGustMPH,Humidity,HourlyPrecipIn,Conditions,Clouds,dailyrainin,SoftwareType,DateUTC
2013-05-01 00:02:00,60.8,41.6,29.83,NNE,23,5.4,9.2,49,0.00,,,0.00,WUHU216HW,2013-05-01 05:02:00,
2013-05-01 00:07:00,60.7,42.5,29.84,East,90,6.9,9.2,51,0.00,,,0.00,WUHU216HW,2013-05-01 05:07:00,
2013-05-01 00:12:00,60.3,43.1,29.85,NNE,23,3.4,7.6,53,0.00,,,0.00,WUHU216HW,2013-05-01 05:12:00,
2013-05-01 00:17:00,60.1,43.8,29.86,NNE,23,3.1,7.4,55,0.00,,,0.00,WUHU216HW,2013-05-01 05:17:00,
2013-05-01 00:22:00,59.9,44.2,29.86,WNW,293,3.8,7.4,56,0.00,,,0.00,WUHU216HW,2013-05-01 05:22:00,
2013-05-01 00:27:00,59.6,43.8,29.86,NNE,23,3.4,9.4,56,0.00,,,0.00,WUHU216HW,2013-05-01 05:27:00,
2013-05-01 00:32:00,59.2,43.0,29.86,NE,45,6.0,9.4,55,0.00,,,0.00,WUHU216HW,2013-05-01 05:32:00,
2013-05-01 00:37:00,58.7,43.0,29.87,NNE,23,6.0,9.2,56,0.00,,,0.00,WUHU216HW,2013-05-01 05:37:00,
2013-05-01 00:42:00,58.0,42.9,29.87,NNE,23,2.2,8.5,57,0.00,,,0.00,WUHU216HW,2013-05-01 05:42:00,
2013-05-01 00:47:00,57.1,43.4,29.88,NNE,23,4.3,7.2,60,0.00,,,0.00,WUHU216HW,2013-05-01 05:47:00,
2013-05-01 00:52:00,56.3,43.9,29.88,NNE,23,4.9,8.5,63,0.00,,,0.00,WUHU216HW,2013-05-01 05:52:00,
2013-05-01 00:57:00,55.8,43.4,29.87,NNE,23,8.5,13.0,63,0.00,,,0.00,WUHU216HW,2013-05-01 05:57:00,
2013-05-01 01:02:00,55.4,43.0,29.87,North,0,9.2,14.1,63,0.00,,,0.00,WUHU216HW,2013-05-01 06:02:00,
2013-05-01 01:07:00,55.3,43.3,29.86,NE,45,9.8,14.1,64,0.00,,,0.00,WUHU216HW,2013-05-01 06:07:00,
2013-05-01 01:12:00,55.3,42.9,29.87,North,0,8.5,16.1,63,0.00,,,0.00,WUHU216HW,2013-05-01 06:12:00,
2013-05-01 01:17:00,55.3,42.9,29.87,North,0,10.5,16.1,63,0.00,,,0.00,WUHU216HW,2013-05-01 06:17:00,
2013-05-01 01:22:00,55.3,42.4,29.88,ENE,68,7.4,12.1,62,0.00,,,0.00,WUHU216HW,2013-05-01 06:22:00,
2013-05-01 01:27:00,55.1,41.9,29.89,North,0,9.4,15.0,61,0.00,,,0.00,WUHU216HW,2013-05-01 06:27:00,
2013-05-01 01:32:00,55.1,41.9,29.89,ENE,68,8.1,15.0,61,0.00,,,0.00,WUHU216HW,2013-05-01 06:32:00,
2013-05-01 01:37:00,54.7,42.8,29.89,East,90,4.7,9.4,64,0.00,,,0.00,WUHU216HW,2013-05-01 06:37:00,
2013-05-01 01:42:00,53.6,42.5,29.89,NNE,23,5.6,8.5,66,0.00,,,0.00,WUHU216HW,2013-05-01 06:42:00,
2013-05-01 01:47:00,53.3,42.6,29.89,NNE,23,7.4,11.4,67,0.00,,,0.00,WUHU216HW,2013-05-01 06:47:00,
2013-05-01 01:52:00,53.1,42.4,29.90,NE,45,5.4,11.4,67,0.00,,,0.00,WUHU216HW,2013-05-01 06:52:00,
2013-05-01 01:57:00,52.7,42.1,29.91,NNE,23,6.5,11.4,67,0.00,,,0.00,WUHU216HW,2013-05-01 06:57:00,
2013-05-01 02:02:00,52.2,41.9,29.91,NE,45,10.3,13.4,68,0.00,,,0.00,WUHU216HW,2013-05-01 07:02:00,
2013-05-01 02:07:00,51.8,41.7,29.91,NNE,23,6.3,14.3,68,0.00,,,0.00,WUHU216HW,2013-05-01 07:07:00,
2013-05-01 02:12:00,51.7,41.5,29.92,NNE,23,8.1,14.3,68,0.00,,,0.00,WUHU216HW,2013-05-01 07:12:00,
2013-05-01 02:17:00,51.5,41.3,29.92,NNE,23,9.6,12.1,68,0.00,,,0.00,WUHU216HW,2013-05-01 07:17:00,
2013-05-01 02:22:00,51.3,41.5,29.93,ENE,68,7.4,12.1,69,0.00,,,0.00,WUHU216HW,2013-05-01 07:22:00,
2013-05-01 02:27:00,51.1,41.3,29.93,NNE,23,8.7,14.3,69,0.00,,,0.00,WUHU216HW,2013-05-01 07:27:00,
2013-05-01 02:32:00,51.1,41.8,29.93,NE,45,8.9,14.3,70,0.00,,,0.00,WUHU216HW,2013-05-01 07:32:00,
2013-05-01 02:37:00,50.9,41.6,29.93,NE,45,9.2,14.3,70,0.00,,,0.00,WUHU216HW,2013-05-01 07:37:00,
2013-05-01 02:42:00,50.8,41.4,29.92,NE,45,6.7,14.1,70,0.00,,,0.00,WUHU216HW,2013-05-01 07:42:00,
2013-05-01 02:47:00,50.6,41.2,29.91,NNE,23,6.5,14.1,70,0.00,,,0.00,WUHU216HW,2013-05-01 07:47:00,
2013-05-01 02:52:00,50.6,41.2,29.91,North,0,11.4,15.0,70,0.00,,,0.00,WUHU216HW,2013-05-01 07:52:00,
2013-05-01 02:57:00,50.4,41.0,29.92,NNE,23,8.9,15.0,70,0.00,,,0.00,WUHU216HW,2013-05-01 07:57:00,
2013-05-01 03:02:00,50.4,41.0,29.92,NE,45,9.6,13.4,70,0.00,,,0.00,WUHU216HW,2013-05-01 08:02:00,
2013-05-01 03:07:00,50.2,40.5,29.93,ENE,68,7.6,16.8,69,0.00,,,0.00,WUHU216HW,2013-05-01 08:07:00,
2013-05-01 03:12:00,50.0,40.7,29.92,NNE,23,9.2,16.8,70,0.00,,,0.00,WUHU216HW,2013-05-01 08:12:00,
2013-05-01 03:17:00,50.0,40.7,29.93,North,0,6.9,13.4,70,0.00,,,0.00,WUHU216HW,2013-05-01 08:17:00,
2013-05-01 03:22:00,49.9,40.5,29.93,NNE,23,7.6,13.4,70,0.00,,,0.00,WUHU216HW,2013-05-01 08:22:00,
2013-05-01 03:27:00,49.9,40.5,29.94,NE,45,9.4,12.8,70,0.00,,,0.00,WUHU216HW,2013-05-01 08:27:00,
2013-05-01 03:32:00,49.9,40.5,29.94,East,90,14.1,14.1,70,0.00,,,0.00,WUHU216HW,2013-05-01 08:32:00,
2013-05-01 03:37:00,49.9,40.5,29.95,NE,45,9.6,14.1,70,0.00,,,0.00,WUHU216HW,2013-05-01 08:37:00,
2013-05-01 03:42:00,49.7,40.3,29.96,NNE,23,9.2,13.0,70,0.00,,,0.00,WUHU216HW,2013-05-01 08:42:00,
2013-05-01 03:47:00,49.5,40.1,29.96,NNE,23,9.4,13.9,70,0.00,,,0.00,WUHU216HW,2013-05-01 08:47:00,
2013-05-01 03:52:00,49.3,40.3,29.97,NE,45,13.4,13.9,71,0.00,,,0.00,WUHU216HW,2013-05-01 08:52:00,
2013-05-01 03:57:00,49.3,40.3,29.97,NE,45,7.8,13.4,71,0.00,,,0.00,WUHU216HW,2013-05-01 08:57:00,
2013-05-01 04:02:00,49.1,40.2,29.96,NNE,23,12.1,13.4,71,0.00,,,0.00,WUHU216HW,2013-05-01 09:02:00,
2013-05-01 04:07:00,49.1,40.2,29.96,North,0,7.6,12.1,71,0.00,,,0.00,WUHU216HW,2013-05-01 09:07:00,
2013-05-01 04:12:00,49.1,40.2,29.96,NNE,23,10.7,12.8,71,0.00,,,0.00,WUHU216HW,2013-05-01 09:12:00,
2013-05-01 04:17:00,49.1,40.2,29.96,NE,45,7.8,12.8,71,0.00,,,0.00,WUHU216HW,2013-05-01 09:17:00,
2013-05-01 04:22:00,49.0,40.0,29.96,NNE,23,5.6,11.9,71,0.00,,,0.00,WUHU216HW,2013-05-01 09:22:00,
2013-05-01 04:27:00,49.0,40.0,29.97,North,0,6.9,12.3,71,0.00,,,0.00,WUHU216HW,2013-05-01 09:27:00,
2013-05-01 04:32:00,48.8,39.8,29.97,NE,45,5.6,12.3,71,0.00,,,0.00,WUHU216HW,2013-05-01 09:32:00,
2013-05-01 04:37:00,48.8,39.8,29.97,North,0,8.9,11.6,71,0.00,,,0.00,WUHU216HW,2013-05-01 09:37:00,
2013-05-01 04:42:00,48.6,39.6,29.98,NNE,23,6.3,14.1,71,0.00,,,0.00,WUHU216HW,2013-05-01 09:42:00,
2013-05-01 04:47:00,48.6,39.6,29.97,NNE,23,7.2,14.1,71,0.00,,,0.00,WUHU216HW,2013-05-01 09:47:00,
2013-05-01 04:52:00,48.4,39.4,29.98,NNE,23,6.5,12.8,71,0.00,,,0.00,WUHU216HW,2013-05-01 09:52:00,
2013-05-01 04:57:00,48.4,39.4,29.97,East,90,6.0,10.5,71,0.00,,,0.00,WUHU216HW,2013-05-01 09:57:00,
2013-05-01 05:02:00,48.2,39.3,29.98,North,0,6.7,11.2,71,0.00,,,0.00,WUHU216HW,2013-05-01 10:02:00,
2013-05-01 05:07:00,48.2,39.3,29.98,NE,45,6.7,11.2,71,0.00,,,0.00,WUHU216HW,2013-05-01 10:07:00,
2013-05-01 05:12:00,48.2,39.3,29.99,NNE,23,6.0,14.8,71,0.00,,,0.00,WUHU216HW,2013-05-01 10:12:00,
2013-05-01 05:17:00,48.1,39.1,29.99,NNE,23,5.6,14.8,71,0.00,,,0.00,WUHU216HW,2013-05-01 10:17:00,
2013-05-01 05:22:00,48.1,39.1,29.99,NNE,23,6.7,9.6,71,0.00,,,0.00,WUHU216HW,2013-05-01 10:22:00,
2013-05-01 05:27:00,48.1,38.7,29.99,NNE,23,7.2,11.2,70,0.00,,,0.00,WUHU216HW,2013-05-01 10:27:00,
2013-05-01 05:32:00,47.9,38.5,29.99,NNE,23,9.2,11.4,70,0.00,,,0.00,WUHU216HW,2013-05-01 10:32:00,
2013-05-01 05:37:00,47.9,38.9,30.00,NNE,23,7.6,11.4,71,0.00,,,0.00,WUHU216HW,2013-05-01 10:37:00,
2013-05-01 05:42:00,47.9,38.9,30.00,North,0,5.4,10.1,71,0.00,,,0.00,WUHU216HW,2013-05-01 10:42:00,
2013-05-01 05:47:00,47.7,38.7,30.01,NNE,23,5.1,10.1,71,0.00,,,0.00,WUHU216HW,2013-05-01 10:47:00,
2013-05-01 05:52:00,47.7,38.7,30.01,NE,45,4.7,10.5,71,0.00,,,0.00,WUHU216HW,2013-05-01 10:52:00,
2013-05-01 05:57:00,47.5,38.6,30.01,NNE,23,6.5,10.5,71,0.00,,,0.00,WUHU216HW,2013-05-01 10:57:00,
2013-05-01 06:02:00,47.5,38.6,30.01,North,0,10.1,12.8,71,0.00,,,0.00,WUHU216HW,2013-05-01 11:02:00,
2013-05-01 06:07:00,47.5,38.6,30.01,NNE,23,4.7,12.8,71,0.00,,,0.00,WUHU216HW,2013-05-01 11:07:00,
2013-05-01 06:12:00,47.3,38.4,30.01,NE,45,9.4,10.7,71,0.00,,,0.00,WUHU216HW,2013-05-01 11:12:00,
2013-05-01 06:17:00,47.2,38.6,30.01,North,0,6.5,11.4,72,0.00,,,0.00,WUHU216HW,2013-05-01 11:17:00,
2013-05-01 06:22:00,47.2,38.6,30.02,SW,225,2.9,11.4,72,0.00,,,0.00,WUHU216HW,2013-05-01 11:22:00,
2013-05-01 06:27:00,47.2,38.6,30.03,NE,45,9.2,11.6,72,0.00,,,0.00,WUHU216HW,2013-05-01 11:27:00,
2013-05-01 06:32:00,47.2,38.6,30.03,ENE,68,5.6,11.6,72,0.00,,,0.00,WUHU216HW,2013-05-01 11:32:00,
2013-05-01 06:37:00,47.0,38.4,30.03,NE,45,3.8,9.2,72,0.00,,,0.00,WUHU216HW,2013-05-01 11:37:00,
2013-05-01 06:42:00,46.8,38.3,30.03,NNE,23,8.9,9.2,72,0.00,,,0.00,WUHU216HW,2013-05-01 11:42:00,
2013-05-01 06:47:00,46.8,38.3,30.03,North,0,6.3,9.8,72,0.00,,,0.00,WUHU216HW,2013-05-01 11:47:00,
2013-05-01 06:52:00,46.8,38.3,30.04,North,0,9.2,12.1,72,0.00,,,0.00,WUHU216HW,2013-05-01 11:52:00,
2013-05-01 06:57:00,46.8,38.3,30.04,North,0,7.6,12.1,72,0.00,,,0.00,WUHU216HW,2013-05-01 11:57:00,
2013-05-01 07:02:00,46.6,38.1,30.05,NNE,23,5.8,9.2,72,0.00,,,0.00,WUHU216HW,2013-05-01 12:02:00,
2013-05-01 07:07:00,46.6,38.1,30.06,West,270,5.4,9.2,72,0.00,,,0.00,WUHU216HW,2013-05-01 12:07:00,
2013-05-01 07:12:00,46.6,38.1,30.06,NNW,338,5.4,10.3,72,0.00,,,0.00,WUHU216HW,2013-05-01 12:12:00,
2013-05-01 07:17:00,46.6,38.1,30.07,NE,45,6.7,10.3,72,0.00,,,0.00,WUHU216HW,2013-05-01 12:17:00,
2013-05-01 07:22:00,46.4,38.0,30.07,NNE,23,6.0,9.8,72,0.00,,,0.00,WUHU216HW,2013-05-01 12:22:00,
2013-05-01 07:27:00,46.4,38.0,30.07,ENE,68,6.9,9.4,72,0.00,,,0.00,WUHU216HW,2013-05-01 12:27:00,
2013-05-01 07:32:00,46.4,38.0,30.07,NNE,23,6.3,9.2,72,0.00,,,0.00,WUHU216HW,2013-05-01 12:32:00,
2013-05-01 07:37:00,46.4,38.0,30.07,NNE,23,7.4,9.2,72,0.00,,,0.00,WUHU216HW,2013-05-01 12:37:00,
2013-05-01 07:42:00,46.4,38.0,30.08,NE,45,8.3,9.2,72,0.00,,,0.00,WUHU216HW,2013-05-01 12:42:00,
2013-05-01 07:47:00,46.4,38.0,30.06,NNE,23,11.9,13.4,72,0.00,,,0.00,WUHU216HW,2013-05-01 12:47:00,
2013-05-01 07:52:00,46.4,38.0,30.06,NE,45,6.3,13.4,72,0.00,,,0.00,WUHU216HW,2013-05-01 12:52:00,
2013-05-01 07:57:00,46.4,38.0,30.06,North,0,6.5,11.9,72,0.00,,,0.00,WUHU216HW,2013-05-01 12:57:00,
2013-05-01 08:02:00,46.4,38.0,30.06,East,90,5.6,11.4,72,0.00,,,0.00,WUHU216HW,2013-05-01 13:02:00,
2013-05-01 08:07:00,46.1,37.6,30.07,NE,45,10.5,11.4,72,0.00,,,0.00,WUHU216HW,2013-05-01 13:07:00,
2013-05-01 08:12:00,46.1,37.6,30.08,ENE,68,3.8,11.4,72,0.00,,,0.00,WUHU216HW,2013-05-01 13:12:00,
2013-05-01 08:17:00,45.9,37.5,30.09,NNE,23,7.6,10.5,72,0.00,,,0.00,WUHU216HW,2013-05-01 13:17:00,
2013-05-01 08:22:00,45.7,36.9,30.08,ENE,68,10.7,12.1,71,0.00,,,0.00,WUHU216HW,2013-05-01 13:22:00,
2013-05-01 08:27:00,45.7,36.9,30.08,NE,45,9.2,12.1,71,0.00,,,0.00,WUHU216HW,2013-05-01 13:27:00,
2013-05-01 08:32:00,45.4,36.6,30.07,NNE,23,7.4,13.4,71,0.00,,,0.00,WUHU216HW,2013-05-01 13:32:00,
2013-05-01 08:37:00,45.4,36.6,30.07,ENE,68,11.2,13.4,71,0.00,,,0.00,WUHU216HW,2013-05-01 13:37:00,
2013-05-01 08:42:00,45.2,36.0,30.07,NNE,23,7.4,12.8,70,0.00,,,0.00,WUHU216HW,2013-05-01 13:42:00,
2013-05-01 08:47:00,45.0,35.8,30.08,NE,45,7.6,12.8,70,0.00,,,0.00,WUHU216HW,2013-05-01 13:47:00,
2013-05-01 08:52:00,45.0,35.8,30.09,SE,135,7.8,12.5,70,0.00,,,0.00,WUHU216HW,2013-05-01 13:52:00,
2013-05-01 08:57:00,44.8,35.3,30.09,NE,45,4.7,11.2,69,0.00,,,0.00,WUHU216HW,2013-05-01 13:57:00,
2013-05-01 09:02:00,44.8,35.3,30.10,NNE,23,6.9,10.7,69,0.00,,,0.00,WUHU216HW,2013-05-01 14:02:00,
2013-05-01 09:07:00,44.6,34.8,30.10,East,90,3.4,8.5,68,0.00,,,0.00,WUHU216HW,2013-05-01 14:07:00,
2013-05-01 09:12:00,44.3,34.7,30.10,ENE,68,8.3,10.3,69,0.00,,,0.00,WUHU216HW,2013-05-01 14:12:00,
2013-05-01 09:17:00,43.7,34.7,30.10,North,0,12.3,12.3,70,0.00,,,0.00,WUHU216HW,2013-05-01 14:17:00,
2013-05-01 09:22:00,43.6,34.5,30.10,NE,45,11.2,12.5,70,0.00,,,0.00,WUHU216HW,2013-05-01 14:22:00,
2013-05-01 09:27:00,43.2,34.2,30.11,North,0,7.6,12.8,70,0.00,,,0.00,WUHU216HW,2013-05-01 14:27:00,
2013-05-01 09:32:00,43.2,34.2,30.10,NE,45,11.9,12.8,70,0.00,,,0.00,WUHU216HW,2013-05-01 14:32:00,
2013-05-01 09:37:00,42.8,34.2,30.10,NNE,23,5.4,14.3,71,0.00,,,0.00,WUHU216HW,2013-05-01 14:37:00,
2013-05-01 09:42:00,42.8,34.2,30.11,North,0,7.8,14.3,71,0.00,,,0.00,WUHU216HW,2013-05-01 14:42:00,
2013-05-01 09:47:00,42.7,34.0,30.12,NNE,23,6.7,9.8,71,0.00,,,0.00,WUHU216HW,2013-05-01 14:47:00,
2013-05-01 09:52:00,42.1,33.5,30.12,North,0,11.4,12.8,71,0.00,,,0.00,WUHU216HW,2013-05-01 14:52:00,
2013-05-01 09:57:00,41.9,33.3,30.13,NNE,23,9.2,15.9,71,0.00,,,0.00,WUHU216HW,2013-05-01 14:57:00,
2013-05-01 10:02:00,41.8,33.1,30.14,NNE,23,11.0,15.9,71,0.00,,,0.00,WUHU216HW,2013-05-01 15:02:00,
2013-05-01 10:07:00,41.8,32.8,30.14,NNE,23,7.6,12.5,70,0.00,,,0.00,WUHU216HW,2013-05-01 15:07:00,
2013-05-01 10:12:00,41.4,32.4,30.14,East,90,6.5,13.4,70,0.00,,,0.00,WUHU216HW,2013-05-01 15:12:00,
2013-05-01 10:17:00,41.4,32.4,30.14,NNE,23,5.8,13.4,70,0.00,,,0.00,WUHU216HW,2013-05-01 15:17:00,
2013-05-01 10:22:00,41.0,31.7,30.13,NNE,23,8.1,10.5,69,0.00,,,0.00,WUHU216HW,2013-05-01 15:22:00,
2013-05-01 10:27:00,41.0,31.7,30.13,NE,45,4.0,11.2,69,0.00,,,0.00,WUHU216HW,2013-05-01 15:27:00,
2013-05-01 10:32:00,41.0,31.7,30.13,NNE,23,5.4,11.2,69,0.00,,,0.00,WUHU216HW,2013-05-01 15:32:00,
2013-05-01 10:37:00,40.9,31.5,30.13,NNE,23,8.9,11.0,69,0.00,,,0.00,WUHU216HW,2013-05-01 15:37:00,
2013-05-01 10:42:00,40.9,31.5,30.12,NNE,23,9.6,11.6,69,0.00,,,0.00,WUHU216HW,2013-05-01 15:42:00,
2013-05-01 10:47:00,40.9,31.5,30.12,NE,45,4.7,11.6,69,0.00,,,0.00,WUHU216HW,2013-05-01 15:47:00,
2013-05-01 10:52:00,41.0,31.7,30.13,North,0,6.7,12.1,69,0.00,,,0.00,WUHU216HW,2013-05-01 15:52:00,
2013-05-01 10:57:00,40.9,31.9,30.14,NNE,23,6.5,13.0,70,0.00,,,0.00,WUHU216HW,2013-05-01 15:57:00,
2013-05-01 11:02:00,41.0,32.0,30.15,NNE,23,3.1,13.0,70,0.00,,,0.00,WUHU216HW,2013-05-01 16:02:00,
2013-05-01 11:07:00,41.0,32.4,30.15,NNE,23,6.9,11.9,71,0.00,,,0.00,WUHU216HW,2013-05-01 16:07:00,
2013-05-01 11:12:00,41.0,32.0,30.14,North,0,7.4,9.6,70,0.00,,,0.00,WUHU216HW,2013-05-01 16:12:00,
2013-05-01 11:17:00,41.2,32.2,30.14,NE,45,8.7,11.9,70,0.00,,,0.00,WUHU216HW,2013-05-01 16:17:00,
2013-05-01 11:22:00,41.4,32.8,30.13,NNE,23,7.8,12.1,71,0.00,,,0.00,WUHU216HW,2013-05-01 16:22:00,
2013-05-01 11:27:00,41.4,33.0,30.13,North,0,11.6,15.7,72,0.00,,,0.00,WUHU216HW,2013-05-01 16:27:00,
2013-05-01 11:32:00,41.4,33.0,30.14,North,0,8.9,15.7,72,0.00,,,0.00,WUHU216HW,2013-05-01 16:32:00,
2013-05-01 11:37:00,41.4,33.0,30.14,ENE,68,9.6,14.8,72,0.00,,,0.00,WUHU216HW,2013-05-01 16:37:00,
2013-05-01 11:42:00,41.2,32.6,30.14,NNE,23,8.5,14.1,71,0.00,,,0.00,WUHU216HW,2013-05-01 16:42:00,
2013-05-01 11:47:00,41.4,32.8,30.14,ENE,68,8.5,13.4,71,0.00,,,0.00,WUHU216HW,2013-05-01 16:47:00,
2013-05-01 11:52:00,41.4,32.8,30.15,North,0,5.1,12.1,71,0.00,,,0.00,WUHU216HW,2013-05-01 16:52:00,
2013-05-01 11:57:00,41.2,32.6,30.16,NNE,23,4.7,11.4,71,0.00,,,0.00,WUHU216HW,2013-05-01 16:57:00,
2013-05-01 12:02:00,41.2,32.6,30.16,NNE,23,5.1,11.4,71,0.00,,,0.00,WUHU216HW,2013-05-01 17:02:00,
2013-05-01 12:07:00,40.9,32.2,30.16,NNE,23,4.0,11.9,71,0.00,,,0.00,WUHU216HW,2013-05-01 17:07:00,
2013-05-01 12:12:00,40.9,32.2,30.16,NNE,23,4.9,11.9,71,0.00,,,0.00,WUHU216HW,2013-05-01 17:12:00,
2013-05-01 12:17:00,40.9,32.2,30.17,North,0,6.3,10.7,71,0.00,,,0.00,WUHU216HW,2013-05-01 17:17:00,
2013-05-01 12:22:00,40.7,31.7,30.18,NE,45,7.4,8.7,70,0.00,,,0.00,WUHU216HW,2013-05-01 17:22:00,
2013-05-01 12:27:00,40.3,30.6,30.18,ENE,68,4.7,9.2,68,0.00,,,0.00,WUHU216HW,2013-05-01 17:27:00,
2013-05-01 12:32:00,39.6,29.4,30.17,East,90,8.9,10.3,67,0.00,,,0.00,WUHU216HW,2013-05-01 17:32:00,
2013-05-01 12:37:00,38.9,28.8,30.17,ESE,113,6.3,10.3,67,0.00,,,0.00,WUHU216HW,2013-05-01 17:37:00,
2013-05-01 12:42:00,38.2,27.7,30.17,SSE,158,1.8,8.9,66,0.00,,,0.00,WUHU216HW,2013-05-01 17:42:00,
2013-05-01 12:47:00,38.0,27.6,30.17,East,90,4.0,6.7,66,0.00,,,0.00,WUHU216HW,2013-05-01 17:47:00,
2013-05-01 12:52:00,37.6,26.9,30.17,North,0,2.2,8.5,65,0.00,,,0.00,WUHU216HW,2013-05-01 17:52:00,
2013-05-01 12:57:00,37.6,26.9,30.18,SE,135,5.8,8.5,65,0.00,,,0.00,WUHU216HW,2013-05-01 17:57:00,
2013-05-01 13:02:00,37.4,26.7,30.17,NNE,23,4.5,7.6,65,0.00,,,0.00,WUHU216HW,2013-05-01 18:02:00,
2013-05-01 13:07:00,37.4,26.4,30.17,NNE,23,5.4,8.9,64,0.00,,,0.00,WUHU216HW,2013-05-01 18:07:00,
2013-05-01 14:30:00,36.0,25.0,30.20,NNE,23,7.4,7.4,64,0.07,,,0.01,WUHU216HW,2013-05-01 19:30:00,
2013-05-01 14:35:00,36.0,25.0,30.21,NE,45,6.3,10.1,64,0.08,,,0.10,WUHU216HW,2013-05-01 19:35:00,
2013-05-01 14:40:00,36.0,24.7,30.21,ESE,113,5.6,10.1,63,0.06,,,0.10,WUHU216HW,2013-05-01 19:40:00,
2013-05-01 14:45:00,36.0,24.7,30.21,NE,45,4.7,10.1,63,0.06,,,0.10,WUHU216HW,2013-05-01 19:45:00,
2013-05-01 14:50:00,35.8,24.5,30.21,ENE,68,6.9,10.1,63,0.06,,,0.11,WUHU216HW,2013-05-01 19:50:00,
2013-05-01 14:55:00,35.8,24.9,30.21,East,90,9.2,9.6,64,0.05,,,0.11,WUHU216HW,2013-05-01 19:55:00,
2013-05-01 15:00:00,35.6,24.7,30.21,ENE,68,8.9,10.7,64,0.04,,,0.11,WUHU216HW,2013-05-01 20:00:00,
2013-05-01 15:05:00,35.6,24.7,30.21,NNE,23,6.0,10.7,64,0.04,,,0.12,WUHU216HW,2013-05-01 20:05:00,
2013-05-01 15:10:00,35.6,24.7,30.21,North,0,6.0,8.9,64,0.04,,,0.12,WUHU216HW,2013-05-01 20:10:00,
2013-05-01 15:15:00,35.6,24.7,30.22,NNE,23,3.1,8.1,64,0.03,,,0.12,WUHU216HW,2013-05-01 20:15:00,
2013-05-01 15:20:00,35.5,24.5,30.22,NNE,23,5.1,10.5,64,0.04,,,0.13,WUHU216HW,2013-05-01 20:20:00,
2013-05-01 15:25:00,35.3,24.3,30.21,NNE,23,6.9,10.5,64,0.04,,,0.13,WUHU216HW,2013-05-01 20:25:00,
2013-05-01 15:30:00,35.3,24.3,30.22,ENE,68,4.0,10.5,64,0.04,,,0.13,WUHU216HW,2013-05-01 20:30:00,
2013-05-01 15:35:00,35.1,24.1,30.23,NNE,23,4.7,8.3,64,0.03,,,0.13,WUHU216HW,2013-05-01 20:35:00,
2013-05-01 15:40:00,34.9,23.9,30.22,NNE,23,6.9,8.3,64,0.03,,,0.13,WUHU216HW,2013-05-01 20:40:00,
2013-05-01 15:45:00,34.9,23.9,30.23,NE,45,4.7,8.3,64,0.03,,,0.13,WUHU216HW,2013-05-01 20:45:00,
2013-05-01 15:50:00,34.7,23.8,30.22,North,0,8.7,9.6,64,0.03,,,0.14,WUHU216HW,2013-05-01 20:50:00,
2013-05-01 15:55:00,34.7,23.8,30.23,NNE,23,6.3,9.6,64,0.03,,,0.14,WUHU216HW,2013-05-01 20:55:00,
2013-05-01 16:00:00,34.7,23.8,30.25,NNE,23,6.7,8.7,64,0.02,,,0.14,WUHU216HW,2013-05-01 21:00:00,
2013-05-01 16:05:00,34.6,23.6,30.24,NNE,23,8.1,9.8,64,0.02,,,0.14,WUHU216HW,2013-05-01 21:05:00,
2013-05-01 16:10:00,34.7,23.8,30.22,ENE,68,4.9,11.0,64,0.04,,,0.16,WUHU216HW,2013-05-01 21:10:00,
2013-05-01 16:15:00,34.7,23.8,30.24,NNW,338,3.6,11.0,64,0.05,,,0.17,WUHU216HW,2013-05-01 21:15:00,
2013-05-01 16:20:00,34.6,23.6,30.24,North,0,8.5,8.5,64,0.05,,,0.18,WUHU216HW,2013-05-01 21:20:00,
2013-05-01 16:25:00,34.6,23.6,30.23,WNW,293,7.8,10.3,64,0.05,,,0.18,WUHU216HW,2013-05-01 21:25:00,
2013-05-01 16:30:00,34.4,23.4,30.24,NNE,23,5.6,10.3,64,0.05,,,0.18,WUHU216HW,2013-05-01 21:30:00,
2013-05-01 16:35:00,34.4,23.4,30.25,ENE,68,4.9,8.3,64,0.05,,,0.18,WUHU216HW,2013-05-01 21:35:00,
2013-05-01 16:40:00,34.4,23.4,30.25,North,0,3.6,6.7,64,0.05,,,0.18,WUHU216HW,2013-05-01 21:40:00,
2013-05-01 16:45:00,34.4,23.4,30.25,ESE,113,5.4,7.8,64,0.04,,,0.18,WUHU216HW,2013-05-01 21:45:00,
2013-05-01 16:50:00,34.4,23.4,30.26,NNE,23,7.6,7.8,64,0.04,,,0.18,WUHU216HW,2013-05-01 21:50:00,
2013-05-01 16:55:00,34.2,23.2,30.24,NNE,23,8.5,9.2,64,0.05,,,0.19,WUHU216HW,2013-05-01 21:55:00,
2013-05-01 17:00:00,34.2,23.2,30.23,ESE,113,8.9,10.7,64,0.05,,,0.19,WUHU216HW,2013-05-01 22:00:00,
2013-05-01 17:05:00,34.2,23.2,30.25,NNE,23,3.4,10.7,64,0.05,,,0.20,WUHU216HW,2013-05-01 22:05:00,
2013-05-01 17:10:00,34.2,23.2,30.25,NE,45,8.1,9.2,64,0.05,,,0.21,WUHU216HW,2013-05-01 22:10:00,
2013-05-01 17:15:00,34.0,23.0,30.25,ENE,68,4.7,8.1,64,0.06,,,0.23,WUHU216HW,2013-05-01 22:15:00,
2013-05-01 17:20:00,33.8,22.9,30.25,NNE,23,6.3,8.3,64,0.07,,,0.25,WUHU216HW,2013-05-01 22:20:00,
2013-05-01 17:25:00,33.7,22.7,30.23,SE,135,4.7,9.4,64,0.08,,,0.26,WUHU216HW,2013-05-01 22:25:00,
2013-05-01 17:30:00,33.8,22.9,30.25,NE,45,6.9,9.4,64,0.09,,,0.27,WUHU216HW,2013-05-01 22:30:00,
2013-05-01 17:35:00,33.5,22.5,30.25,NE,45,2.7,9.2,64,0.13,,,0.32,WUHU216HW,2013-05-01 22:35:00,
2013-05-01 17:40:00,33.7,22.7,30.25,NNE,23,6.3,9.2,64,0.15,,,0.34,WUHU216HW,2013-05-01 22:40:00,
2013-05-01 17:45:00,33.5,22.5,30.25,NE,45,7.6,9.2,64,0.16,,,0.34,WUHU216HW,2013-05-01 22:45:00,
2013-05-01 17:50:00,33.5,22.5,30.26,NE,45,5.1,9.2,64,0.17,,,0.36,WUHU216HW,2013-05-01 22:50:00,
2013-05-01 17:55:00,33.5,22.5,30.25,NE,45,6.3,8.5,64,0.17,,,0.37,WUHU216HW,2013-05-01 22:55:00,
2013-05-01 18:00:00,33.5,22.5,30.26,NNE,23,3.4,8.5,64,0.16,,,0.37,WUHU216HW,2013-05-01 23:00:00,
2013-05-01 18:05:00,33.5,22.5,30.26,NNE,23,6.0,7.4,64,0.16,,,0.37,WUHU216HW,2013-05-01 23:05:00,
2013-05-01 18:10:00,33.5,22.5,30.27,NNW,338,9.2,11.0,64,0.15,,,0.37,WUHU216HW,2013-05-01 23:10:00,
2013-05-01 18:15:00,33.5,22.5,30.27,North,0,10.1,11.0,64,0.14,,,0.37,WUHU216HW,2013-05-01 23:15:00,
2013-05-01 18:20:00,33.5,22.5,30.25,North,0,7.4,11.0,64,0.11,,,0.37,WUHU216HW,2013-05-01 23:20:00,
2013-05-01 18:25:00,33.5,22.5,30.25,North,0,5.6,10.5,64,0.11,,,0.37,WUHU216HW,2013-05-01 23:25:00,
2013-05-01 18:30:00,33.5,22.5,30.26,NE,45,6.9,10.5,64,0.08,,,0.37,WUHU216HW,2013-05-01 23:30:00,
2013-05-01 18:35:00,33.3,22.4,30.27,NNE,23,6.7,9.6,64,0.06,,,0.37,WUHU216HW,2013-05-01 23:35:00,
2013-05-01 18:40:00,33.1,22.2,30.26,NNE,23,5.4,9.6,64,0.03,,,0.37,WUHU216HW,2013-05-01 23:40:00,
2013-05-01 18:45:00,33.1,22.2,30.27,NE,45,4.7,9.8,64,0.02,,,0.37,WUHU216HW,2013-05-01 23:45:00,
2013-05-01 18:50:00,32.9,22.1,30.27,NE,45,4.7,9.8,64,0.02,,,0.37,WUHU216HW,2013-05-01 23:50:00,
2013-05-01 18:55:00,32.9,22.1,30.27,NE,45,4.7,8.1,64,0.01,,,0.37,WUHU216HW,2013-05-01 23:55:00,
2013-05-01 19:00:00,32.9,22.1,30.27,ENE,68,4.7,6.7,64,0.01,,,0.37,WUHU216HW,2013-05-02 00:00:00,
2013-05-01 19:05:00,32.9,22.1,30.27,NNE,23,2.5,6.5,64,0.00,,,0.37,WUHU216HW,2013-05-02 00:05:00,
2013-05-01 19:10:00,32.8,21.9,30.26,NE,45,2.2,6.9,64,0.00,,,0.37,WUHU216HW,2013-05-02 00:10:00,
2013-05-01 19:15:00,32.9,22.1,30.27,NE,45,2.5,6.9,64,0.00,,,0.37,WUHU216HW,2013-05-02 00:15:00,
2013-05-01 19:20:00,32.9,22.1,30.29,NE,45,4.7,6.9,64,0.00,,,0.37,WUHU216HW,2013-05-02 00:20:00,
2013-05-01 19:25:00,32.9,22.1,30.29,NE,45,7.2,7.2,64,0.00,,,0.37,WUHU216HW,2013-05-02 00:25:00,
2013-05-01 19:30:00,32.9,22.1,30.28,NE,45,4.5,7.2,64,0.00,,,0.37,WUHU216HW,2013-05-02 00:30:00,
2013-05-01 19:35:00,32.9,22.1,30.28,NNE,23,4.9,8.3,64,0.00,,,0.37,WUHU216HW,2013-05-02 00:35:00,
2013-05-01 19:40:00,32.9,22.1,30.28,East,90,5.6,8.3,64,0.00,,,0.37,WUHU216HW,2013-05-02 00:40:00,
2013-05-01 19:45:00,32.9,22.1,30.27,ENE,68,3.4,7.8,64,0.00,,,0.37,WUHU216HW,2013-05-02 00:45:00,
2013-05-01 19:50:00,32.9,22.1,30.28,NE,45,3.4,8.9,64,0.00,,,0.37,WUHU216HW,2013-05-02 00:50:00,
2013-05-01 19:55:00,32.9,22.1,30.28,NNE,23,3.4,8.9,64,0.00,,,0.37,WUHU216HW,2013-05-02 00:55:00,
2013-05-01 20:00:00,32.9,22.1,30.29,North,0,5.4,7.6,64,0.00,,,0.37,WUHU216HW,2013-05-02 01:00:00,
2013-05-01 20:05:00,32.9,22.1,30.30,NNW,338,2.9,6.0,64,0.00,,,0.37,WUHU216HW,2013-05-02 01:05:00,
2013-05-01 20:10:00,33.1,22.2,30.29,NE,45,5.1,6.0,64,0.00,,,0.37,WUHU216HW,2013-05-02 01:10:00,
2013-05-01 20:15:00,32.9,22.1,30.27,NE,45,6.3,7.8,64,0.00,,,0.37,WUHU216HW,2013-05-02 01:15:00,
2013-05-01 20:20:00,32.9,22.1,30.29,NE,45,4.7,7.8,64,0.00,,,0.37,WUHU216HW,2013-05-02 01:20:00,
2013-05-01 20:25:00,32.9,22.1,30.27,NE,45,7.2,7.8,64,0.00,,,0.37,WUHU216HW,2013-05-02 01:25:00,
2013-05-01 20:30:00,33.1,22.2,30.28,NW,315,6.3,9.2,64,0.00,,,0.37,WUHU216HW,2013-05-02 01:30:00,
2013-05-01 20:35:00,33.1,21.9,30.29,NNE,23,7.4,10.1,63,0.00,,,0.37,WUHU216HW,2013-05-02 01:35:00,
2013-05-01 20:40:00,33.1,22.2,30.29,NNE,23,8.1,10.1,64,0.00,,,0.37,WUHU216HW,2013-05-02 01:40:00,
2013-05-01 20:45:00,32.9,22.1,30.30,NNW,338,6.9,8.7,64,0.00,,,0.37,WUHU216HW,2013-05-02 01:45:00,
2013-05-01 20:50:00,33.1,22.2,30.30,ENE,68,5.6,9.4,64,0.00,,,0.37,WUHU216HW,2013-05-02 01:50:00,
2013-05-01 20:55:00,33.1,21.9,30.29,North,0,7.2,9.8,63,0.00,,,0.37,WUHU216HW,2013-05-02 01:55:00,
2013-05-01 21:00:00,32.9,22.1,30.29,NNE,23,4.7,9.8,64,0.00,,,0.37,WUHU216HW,2013-05-02 02:00:00,
2013-05-01 21:05:00,32.9,22.1,30.30,North,0,6.9,9.2,64,0.00,,,0.37,WUHU216HW,2013-05-02 02:05:00,
2013-05-01 21:10:00,32.9,22.1,30.31,North,0,3.1,9.2,64,0.00,,,0.37,WUHU216HW,2013-05-02 02:10:00,
2013-05-01 21:15:00,32.9,22.1,30.30,NNE,23,4.5,7.6,64,0.00,,,0.37,WUHU216HW,2013-05-02 02:15:00,
2013-05-01 21:20:00,33.1,22.2,30.30,NNE,23,6.3,11.4,64,0.00,,,0.37,WUHU216HW,2013-05-02 02:20:00,
2013-05-01 21:25:00,33.1,22.2,30.30,NE,45,10.1,12.1,64,0.00,,,0.37,WUHU216HW,2013-05-02 02:25:00,
2013-05-01 21:30:00,33.1,22.2,30.30,NNE,23,8.5,12.1,64,0.00,,,0.37,WUHU216HW,2013-05-02 02:30:00,
2013-05-01 21:35:00,33.1,22.2,30.30,NNE,23,6.7,11.0,64,0.00,,,0.37,WUHU216HW,2013-05-02 02:35:00,
2013-05-01 21:40:00,33.1,22.2,30.30,NNE,23,7.8,10.5,64,0.00,,,0.37,WUHU216HW,2013-05-02 02:40:00,
2013-05-01 21:45:00,33.3,22.4,30.31,ENE,68,11.4,11.4,64,0.00,,,0.37,WUHU216HW,2013-05-02 02:45:00,
2013-05-01 21:50:00,33.3,22.4,30.30,NE,45,4.7,11.4,64,0.00,,,0.37,WUHU216HW,2013-05-02 02:50:00,
2013-05-01 21:55:00,33.3,22.4,30.31,NNE,23,7.6,11.4,64,0.00,,,0.37,WUHU216HW,2013-05-02 02:55:00,
2013-05-01 22:00:00,33.3,22.4,30.30,NW,315,7.6,11.0,64,0.00,,,0.37,WUHU216HW,2013-05-02 03:00:00,
2013-05-01 22:05:00,33.3,22.4,30.29,NE,45,11.4,13.2,64,0.00,,,0.37,WUHU216HW,2013-05-02 03:05:00,
2013-05-01 22:10:00,33.3,22.4,30.29,NNE,23,8.3,13.2,64,0.00,,,0.37,WUHU216HW,2013-05-02 03:10:00,
2013-05-01 22:15:00,33.3,22.4,30.28,NNE,23,6.7,11.4,64,0.00,,,0.37,WUHU216HW,2013-05-02 03:15:00,
2013-05-01 22:20:00,33.3,22.1,30.30,NE,45,8.5,10.5,63,0.01,,,0.39,WUHU216HW,2013-05-02 03:20:00,
2013-05-01 22:25:00,33.3,22.4,30.31,NNE,23,5.4,9.8,64,0.01,,,0.39,WUHU216HW,2013-05-02 03:25:00,
2013-05-01 22:30:00,33.1,22.2,30.32,NNE,23,4.0,9.2,64,0.01,,,0.39,WUHU216HW,2013-05-02 03:30:00,
2013-05-01 22:35:00,33.3,22.4,30.31,East,90,6.9,8.3,64,0.01,,,0.39,WUHU216HW,2013-05-02 03:35:00,
2013-05-01 22:40:00,33.3,22.1,30.31,ESE,113,7.6,8.3,63,0.01,,,0.39,WUHU216HW,2013-05-02 03:40:00,
2013-05-01 22:45:00,33.1,22.2,30.31,ENE,68,4.5,8.7,64,0.01,,,0.39,WUHU216HW,2013-05-02 03:45:00,
2013-05-01 22:50:00,33.1,22.2,30.30,North,0,6.3,8.7,64,0.01,,,0.39,WUHU216HW,2013-05-02 03:50:00,
2013-05-01 22:55:00,33.1,22.2,30.29,NNE,23,6.7,8.1,64,0.01,,,0.39,WUHU216HW,2013-05-02 03:55:00,
2013-05-01 23:00:00,32.9,22.1,30.30,NE,45,5.4,7.8,64,0.01,,,0.39,WUHU216HW,2013-05-02 04:00:00,
2013-05-01 23:01:00,33.1,22.2,30.30,NE,45,6.7,7.8,64,0.01,,,0.39,WUHU216HW,2013-05-02 04:01:00,
2013-05-01 23:06:00,32.9,22.1,30.30,NE,45,6.0,7.8,64,0.02,,,0.39,WUHU216HW,2013-05-02 04:06:00,
2013-05-01 23:11:00,32.9,22.1,30.30,NNE,23,3.8,6.3,64,0.02,,,0.39,WUHU216HW,2013-05-02 04:11:00,
2013-05-01 23:16:00,32.8,21.9,30.32,NE,45,2.9,6.0,64,0.01,,,0.39,WUHU216HW,2013-05-02 04:16:00,
2013-05-01 23:21:00,32.8,21.9,30.32,NW,315,1.8,6.3,64,0.01,,,0.39,WUHU216HW,2013-05-02 04:21:00,
2013-05-01 23:26:00,32.8,21.9,30.32,ENE,68,2.7,6.3,64,0.01,,,0.39,WUHU216HW,2013-05-02 04:26:00,
2013-05-01 23:31:00,32.8,21.9,30.32,NNE,23,2.9,5.8,64,0.01,,,0.39,WUHU216HW,2013-05-02 04:31:00,
2013-05-01 23:36:00,32.8,21.9,30.32,NNE,23,2.2,5.4,64,0.01,,,0.39,WUHU216HW,2013-05-02 04:36:00,
2013-05-01 23:41:00,32.8,21.9,30.31,North,0,4.0,5.6,64,0.01,,,0.39,WUHU216HW,2013-05-02 04:41:00,
2013-05-01 23:46:00,32.8,21.9,30.31,NNE,23,1.8,6.3,64,0.01,,,0.39,WUHU216HW,2013-05-02 04:46:00,
2013-05-01 23:51:00,32.8,21.9,30.32,NNE,23,1.6,6.3,64,0.01,,,0.39,WUHU216HW,2013-05-02 04:51:00,
2013-05-01 23:56:00,32.8,21.9,30.33,NE,45,2.0,4.9,64,0.01,,,0.39,WUHU216HW,2013-05-02 04:56:00,